Location: Milton
(43.5183°N, 79.8775°W)
Time: 12:54:25
(UTC+00:00)

CZ-6A DEB - Visible Passes

Search period start: 01 December 2023 00:00
Search period end: 11 December 2023 00:00
Orbit: 646 x 776 km, 98.7° (Epoch: 01 December)

Date Brightness Start Highest point End Pass type
(mag) Time Alt. Az. Time Alt. Az. Time Alt. Az.
01 Dec ? 01:10:17 10° WSW 01:12:26 13° W 01:14:37 10° WNW visible
01 Dec ? 11:30:01 10° NE 11:33:29 19° E 11:36:52 10° SE visible
01 Dec ? 22:37:27 10° ESE 22:41:49 29° ENE 22:46:13 10° N visible
02 Dec ? 00:14:45 10° SSW 00:19:30 38° W 00:24:19 10° NNW visible
02 Dec ? 23:21:49 10° SSE 23:26:55 72° ENE 23:32:04 10° N visible
03 Dec ? 01:02:23 10° SW 01:05:15 15° W 01:08:08 10° NW visible
03 Dec ? 11:23:15 10° NE 11:26:13 16° E 11:29:06 10° SE visible
03 Dec ? 22:30:32 10° ESE 22:34:40 25° ENE 22:38:49 10° N visible
04 Dec ? 00:07:20 10° S 00:12:13 45° W 00:17:10 10° NNW visible
04 Dec ? 23:14:30 10° SSE 23:19:32 61° ENE 23:24:36 10° N visible
05 Dec ? 00:54:21 10° SW 00:57:45 18° W 01:01:10 10° NW visible
05 Dec ? 11:16:22 10° ENE 11:18:36 13° E 11:20:48 10° ESE visible
05 Dec ? 22:23:20 10° ESE 22:27:11 22° ENE 22:31:01 10° NNE visible
05 Dec ? 23:59:37 10° S 00:04:38 53° W 00:09:39 10° NNW visible
06 Dec ? 11:59:39 10° NNE 12:04:05 35° E 12:08:20 10° SSE visible
06 Dec ? 23:06:53 10° SE 23:11:50 51° ENE 23:16:48 10° N visible
07 Dec ? 00:46:05 10° SW 00:49:55 21° W 00:53:45 10° NW visible
07 Dec ? 11:09:44 10° ENE 11:10:37 10° E 11:11:30 10° E visible
07 Dec ? 22:15:54 10° ESE 22:19:23 19° ENE 22:22:50 10° NNE visible
07 Dec ? 23:51:37 10° S 23:56:42 64° WSW 00:01:47 10° NNW visible
08 Dec ? 11:51:50 10° NE 11:55:59 29° E 12:00:00 10° SSE visible
08 Dec ? 22:58:59 10° SE 23:03:48 43° ENE 23:08:37 10° N visible
09 Dec ? 00:37:34 10° SSW 00:41:45 25° W 00:45:55 10° NW visible
09 Dec ? 23:43:19 10° S 23:48:26 76° WSW 23:53:33 10° NNW visible
10 Dec ? 11:43:44 10° NE 11:47:33 24° E 11:51:14 10° SSE visible
10 Dec ? 22:50:49 10° SE 22:55:27 36° ENE 23:00:04 10° N visible
